Cloud_Cover
75 5 5 5 4 0 3 6 6 100 100 100 100 100 100 100 100 100 100 100 100 100 100 83 83 43 79 100 100 100 100 100 100 100 100 100 100 37 100 100 100 100 92
11 12 17 5 3 0 31 68 100 100 100 100 100 100 82 100 100 32 56 96 83 61 100 96 100 94 2 10 75 100 100 100 100 100 100 100 100 100 100 100 100 100 100
36 6 9 38 100 92 91 100 100 100 100 95 100 97 3 2 37 35 2 0 5 5 18 59 45 4 39 18 66 33 5 7 96 100 100 100 100 100 100 100 100 100 100
16 26 22 93 100 100 100 100 100 100 92 83 5 2 0 0 0 0 1 0 0 4 44 100 100 100 73 22 33 78 24 9 4 5 5 38 100 13 6 64 98 100 100
32 54 95 100 100 100 100 100 100 100 69 9 0 0 0 0 0 0 0 0 0 0 0 1 16 0 0 3 2 4 0 1 2 5 18 96 96 100 33 98 40 35 98
12 100 100 100 100 100 100 100 33 16 1 0 0 0 0 0 0 0 0 0 0 0 6 20 47 0 0 0 0 0 0 0 0 0 100 100 51 100 100 100 100 100 100
100 100 100 100 100 100 90 57 2 0 0 0 0 2 4 0 0 0 0 0 0 0 0 0 15 0 0 0 0 0 0 0 0 4 93 100 98 96 99 79 100 100 100
100 100 100 100 100 58 5 4 0 0 0 0 0 3 8 0 0 0 0 0 0 0 0 0 7 14 6 0 0 0 0 0 0 30 56 98 58 2 5 5 72 100 100
100 100 100 94 5 5 12 0 0 0 0 0 0 0 0 0 0 0 0 1 2 4 21 3 0 0 0 0 0 0 0 0 0 36 61 100 97 0 0 5 6 15 100
100 100 97 81 6 0 0 0 0 0 0 0 0 0 0 1 0 0 1 0 0 0 0 0 0 0 0 0 0 0 0 0 0 0 42 66 32 0 0 0 5 54 96
100 100 88 47 4 4 0 3 0 2 0 1 0 0 0 3 1 6 0 0 0 0 0 0 0 0 0 0 0 0 4 4 2 0 33 0 0 0 1 0 0 5 100
100 100 14 5 0 0 0 0 0 0 0 0 0 0 1 1 0 0 0 0 0 0 0 0 0 0 0 0 0 0 0 0 2 5 10 2 0 0 0 0 0 0 23
18 4 0 0 0 0 0 0 0 0 0 0 0 0 8 0 26 28 97 86 90 30 7 9 0 0 0 0 0 0 0 0 0 0 10 3 5 4 0 0 0 0 4
1 1 0 0 0 0 0 0 0 0 0 0 0 4 0 0 10 16 3 0 0 33 6 0 0 0 0 0 0 0 0 0 0 4 5 0 3 1 5 4 0 0 0
4 1 1 0 0 0 0 0 0 0 0 0 0 2 0 0 0 0 0 0 0 0 0 3 0 0 0 0 1 4 5 5 2 2 1 5 3 0 0 0 0 0 0
0 1 0 0 0 0 0 0 0 0 0 0 0 0 0 0 0 0 1 2 5 4 3 1 0 0 0 0 0 0 0 0 0 2 0 8 5 5 1 0 0 0 4
0 0 0 0 0 0 0 0 0 0 0 0 0 0 0 0 0 1 4 5 22 36 26 5 5 5 5 5 0 0 0 0 0 4 1 2 5 4 5 5 0 0 0
0 0 0 0 0 0 0 0 0 0 5 5 5 5 5 4 5 8 52 43 5 5 5 5 5 5 5 5 4 5 5 3 5 5 0 0 0 5 4 4 8 4 5
0 0 0 0 1 5 0 5 1 5 5 5 5 5 5 5 5 6 39 48 66 7 5 5 5 5 27 78 15 71 63 26 28 29 21 2 0 0 0 5 0 6 26
0 0 0 0 10 10 5 5 5 5 5 5 5 5 5 5 5 5 5 5 5 5 5 26 79 100 96 100 100 96 89 48 7 5 5 4 5 1 0 0 3 0 4
0 0 0 0 3 5 5 5 38 77 63 5 5 5 5 5 5 5 5 5 5 5 5 5 10 24 52 93 75 29 93 100 100 12 0 5 5 3 5 0 0 0 0
0 0 0 5 5 5 8 96 100 100 81 71 35 15 68 7 62 85 95 99 48 5 5 47 34 19 5 5 7 5 7 5 63 6 6 5 5 5 5 3 0 0 1
0 0 1 5 5 85 100 79 51 99 94 90 92 82 89 100 78 13 19 5 5 5 17 6 14 71 90 100 100 61 12 5 36 31 100 95 29 48 39 5 2 1 0
2 4 5 5 5 5 5 5 75 88 46 9 78 93 72 5 21 5 5 5 5 5 5 29 93 67 13 5 37 5 51 93 53 38 77 100 100 99 63 92 90 30 4
5 5 5 5 5 5 5 19 40 29 55 12 53 53 69 56 18 68 100 99 65 5 5 16 55 50 7 5 5 7 5 5 44 88 91 100 100 98 100 100 100 100 100
5 5 16 42 25 72 94 88 100 91 72 71 31 35 48 82 96 49 5 5 19 95 100 87 71 97 53 71 100 99 98 74 100 100 100 100 100 100 100 100 100 100 100